{"data":{"norad_id":69319,"epoch":"2026-09-19T22:42:11.388096Z","epoch_age_seconds":76881,"freshness":"FRESH","line1":"1 69319U 26119Z   26262.94596514  .00009954  00000+0  31008-3 0  9999","line2":"2 69319  97.2831 287.7687 0000752 103.7752 256.3574 15.33460475 17338","mean_motion":15.33460475,"eccentricity":7.52e-5,"inclination_deg":97.2831,"raan_deg":287.7687,"arg_perigee_deg":103.7752,"mean_anomaly_deg":256.3574,"bstar":0.00031008,"rev_number":1733,"period_min":93.90525699725,"perigee_km":464.98249086618,"apogee_km":466.01177343966,"semimajor_km":6843.6341321529,"source":"CELESTRAK","updated_at":"2026-09-20T09:00:44.158704Z"}}